Change the Weather History Date:

Thursday, November 3, 2011

  Actual Average Record
Temperature  
Mean Temperature 60 °F 57 °F  
Max Temperature 77 °F 71 °F 83 °F (2010)
Min Temperature 43 °F 44 °F 38 °F (2003)
Degree Days  
Heating Degree Days 5    
Month to date heating degree days 19  
Since 1 July heating degree days 80  
Cooling Degree Days 0    
Month to date cooling degree days 0  
Year to date cooling degree days 1402  
Growing Degree Days 10 (Base 50)    
Moisture  
Dew Point 37 °F    
Average Humidity 39    
Maximum Humidity 65    
Minimum Humidity 13    
Precipitation  
Precipitation 0.00 in 0.04 in 0.20 in (2004)
Month to date precipitation 0.00 0.14  
Year to date precipitation 8.14 9.31  
Since 1 July precipitation 0.76 1.31  
Snow  
Snow 0.00 in - - ()
Month to date snowfall 0.0  
Since 1 July snowfall 0.0  
Since 1 September snowfall 0.0  
Snow Depth 0.00 in    
Sea Level Pressure  
Sea Level Pressure 29.86 in    
Wind  
Wind Speed 8 mph (NNW)    
Max Wind Speed 21 mph    
Max Gust Speed 23 mph    
Visibility 7 miles    
Events Rain    
T = Trace of Precipitation, MM = Missing Value Source: NWS Daily Summary

Daily Weather History Graph

Daily Weather History Graph

Search for Another Location

Airport or City:

Trip Planner

Search our weather history database for the weather conditions in past years. The results will help you decide how hot, cold, wet, or windy it might be!

Date:

Astronomy

Nov. 03, 2011 Rise Set
Actual Time 7:26 AM PDT 6:01 PM PDT
Civil Twilight 6:59 AM PDT 6:28 PM PDT
Nautical Twilight 6:28 AM PDT 6:58 PM PDT
Astronomical Twilight 5:58 AM PDT 7:29 PM PDT
Moon 2:18 PM PDT (11/3) 12:53 AM PDT (11/3)
Length of Visible Light 11h 28m
Length of Day
10h 34m
First Quarter, 61% of the Moon is Illuminated
Nov 3
First Quarter
Nov 10
Full
Nov 18
Last Quarter
Nov 24
New
Dec 2
First Quarter

Hourly Weather History & Observations

Time (PDT) Temp. Windchill Dew Point Humidity Pressure Visibility Wind Dir Wind Speed Gust Speed Precip Events Conditions
12:53 AM 48.0 °F - 34.0 °F 58% 30.04 in 10.0 mi SE 4.6 mph - N/A   Clear
1:53 AM 48.0 °F - 34.0 °F 58% 30.03 in 10.0 mi ESE 5.8 mph - N/A   Clear
2:53 AM 46.9 °F - 34.0 °F 61% 30.02 in 10.0 mi SE 3.5 mph - N/A   Clear
3:53 AM 48.0 °F - 35.1 °F 61% 30.00 in 10.0 mi ESE 3.5 mph - N/A   Clear
4:53 AM 45.0 °F 42.6 °F 34.0 °F 65% 29.98 in 10.0 mi ESE 4.6 mph - N/A   Clear
5:53 AM 46.0 °F 43.1 °F 35.1 °F 66% 29.98 in 10.0 mi East 5.8 mph - N/A   Clear
6:53 AM 44.1 °F 40.8 °F 34.0 °F 68% 29.97 in 10.0 mi East 5.8 mph - N/A   Clear
7:53 AM 46.0 °F 43.1 °F 36.0 °F 68% 29.96 in 10.0 mi East 5.8 mph - N/A   Clear
8:53 AM 53.1 °F - 37.0 °F 55% 29.95 in 10.0 mi East 6.9 mph - N/A   Clear
9:53 AM 61.0 °F - 35.1 °F 38% 29.94 in 10.0 mi East 6.9 mph - N/A   Clear
10:53 AM 68.0 °F - 25.0 °F 20% 29.91 in 10.0 mi SE 10.4 mph - N/A   Clear
11:53 AM 73.0 °F - 21.9 °F 15% 29.87 in 10.0 mi SE 15.0 mph - N/A   Clear
12:53 PM 75.0 °F - 25.0 °F 16% 29.84 in 10.0 mi SSE 11.5 mph - N/A   Clear
2:53 PM 77.0 °F - 23.0 °F 13% 29.77 in 10.0 mi South 12.7 mph 18.4 mph N/A   Clear
3:53 PM 73.9 °F - 28.0 °F 18% 29.75 in 2.5 mi WNW 11.5 mph - N/A   Haze
4:01 PM 71.6 °F - 35.6 °F 27% 29.76 in 1.5 mi WNW 12.7 mph - N/A   Haze
4:06 PM 71.6 °F - 35.6 °F 27% 29.76 in 2.0 mi WNW 12.7 mph - N/A   Haze
4:11 PM 71.6 °F - 35.6 °F 27% 29.76 in 1.5 mi WNW 11.5 mph - N/A   Haze
4:40 PM 66.2 °F - 37.4 °F 35% 29.76 in 2.0 mi West 18.4 mph - N/A   Haze
4:53 PM 66.9 °F - 39.0 °F 36% 29.75 in 1.8 mi WNW 15.0 mph - N/A   Haze
5:37 PM 64.4 °F - 41.0 °F 42% 29.76 in 2.0 mi WNW 13.8 mph 21.9 mph N/A   Haze
5:53 PM 63.0 °F - 42.1 °F 46% 29.76 in 1.8 mi WNW 16.1 mph - N/A   Haze
6:15 PM 60.8 °F - 42.8 °F 52% 29.77 in 2.5 mi WNW 16.1 mph 23.0 mph N/A   Haze
6:22 PM 60.8 °F - 42.8 °F 52% 29.77 in 3.0 mi WNW 13.8 mph 23.0 mph N/A   Haze
7:23 PM 57.2 °F - 42.8 °F 59% 29.80 in 2.5 mi WNW 15.0 mph 23.0 mph N/A   Haze
7:33 PM 57.2 °F - 42.8 °F 59% 29.81 in 4.0 mi NW 17.3 mph 25.3 mph N/A   Haze
7:53 PM 55.9 °F - 43.0 °F 62% 29.82 in 10.0 mi NNW 15.0 mph - N/A   Overcast
8:53 PM 55.9 °F - 41.0 °F 57% 29.83 in 9.0 mi NNW 12.7 mph - N/A   Overcast
9:53 PM 50.0 °F - 45.0 °F 83% 29.86 in 4.0 mi NNW 15.0 mph - 0.02 in Rain Rain
10:27 PM 48.2 °F - 44.6 °F 87% 29.87 in 4.0 mi NNW 10.4 mph - 0.08 in Rain Rain
10:53 PM 48.0 °F - 44.1 °F 86% 29.87 in 8.0 mi North 5.8 mph - 0.10 in Rain Light Rain
11:53 PM 48.0 °F - 44.1 °F 86% 29.86 in 10.0 mi NE 3.5 mph - 0.02 in   Overcast